Voltar ao catálogo

COSMOS 1275 DEB

AtivoPO
NORAD 42151·DEBRIS·🇷🇺 Russia

Lançado Jun 4, 1981 de Plesetsk Cosmodrome

Loading…

Próximas Passagens (próximas 24 horas)

TLE

EnvelhecendoSource: Space-Track

Época: Sep 4, 2026, 19:09 UTC

1 42151U 81053RP  26247.79792518  .00000800  00000-0  68388-3 0  9993
2 42151  82.9310 271.6982 0084697 232.6324 126.7103 13.84279600643495

Acompanhe COSMOS 1275 DEB em tempo real com AllMySat

Download on the App Store